Home   Weather   Grieskirchen   Past weeks

Flag for Austria Past Weather in Grieskirchen, Upper Austria, Austria — Yesterday and Last 2 Weeks

Now
37 °F

Rain. Partly sunny.


Feels Like: 33 °F
Forecast: 36 / 53 °F
Wind: 6 mph from West

Location: Linz / Hoersching-Flughafen

Current Time: Apr 28, 2017 at 12:37:32 pm

Latest Report: Apr 28, 2017 at 11:50 am


Visibility: N/A

Pressure: 29.80 "Hg

Humidity: 93%

Dew Point: 36 °F

Location of GrieskirchenLocation

Past Weather in Grieskirchen — Graph

°F

Grieskirchen Temperature Yesterday

Maximum temperature yesterday: 43 °F (at 11:50 am)
Minimum temperature yesterday: 39 °F (at 4:20 am)
Average temperature yesterday: 41 °F

High & Low Weather Summary for the Past Weeks

 TemperatureHumidityPressure
High64 °F (Apr 25, 2:50 pm)100% (Apr 18, 8:50 pm)30.51 "Hg (Apr 18, 8:50 pm)
Low28 °F (Apr 20, 5:20 am)39% (Apr 24, 3:50 pm)29.68 "Hg (Apr 26, 2:50 am)
Average44 °F73%30.06 "Hg
* Reported Apr 13 11:20 am — Apr 28 11:20 am, Grieskirchen, Weather by CustomWeather, © 2017

Note: Actual official high and low records may vary slightly from our data, if they occured in-between our weather recording intervals... More about our weather records

Advertising

Grieskirchen Weather History for the Previous 24 Hours

Scroll right to see more
 ConditionsComfort  
Time TempWeatherWind HumidityBarometerVisibility
11:20 am
Fri, Apr 28
37 °FLight rain. Partly sunny.6 mph93%29.83 "HgN/A
10:50 am37 °FLight rain. Partly sunny.3 mph93%29.80 "HgN/A
10:20 am37 °FLight rain. Broken clouds.5 mph93%29.83 "Hg6 mi
9:50 am37 °FLight rain. Broken clouds.6 mph93%29.80 "Hg6 mi
9:20 am37 °FLight rain. Broken clouds.7 mph93%29.83 "Hg4 mi
8:50 am36 °FLight rain. Partly sunny.5 mph100%29.83 "Hg4 mi
8:20 am36 °FLight rain. Broken clouds.6 mph93%29.80 "Hg4 mi
7:50 am34 °FLight rain. Broken clouds.6 mph100%29.83 "Hg4 mi
7:20 am34 °FPartly sunny.5 mph93%29.83 "Hg4 mi
6:50 am34 °FLight rain. Partly sunny.2 mph93%29.83 "Hg3 mi
6:20 am32 °FLight rain. Partly sunny.5 mph100%29.83 "Hg3 mi
5:50 am32 °FLight rain. Broken clouds.2 mph100%29.80 "Hg4 mi
5:20 am32 °FLight snow. Partly cloudy.5 mph100%29.83 "Hg3 mi
4:50 am32 °FLight rain. Partly cloudy.3 mph100%29.80 "Hg4 mi
4:20 am32 °FLight rain. Partly cloudy.3 mph100%29.83 "Hg3 mi
3:20 am34 °FRain. Passing clouds.3 mph93%29.86 "Hg4 mi
2:50 am34 °FRain. Passing clouds.9 mph93%29.86 "Hg4 mi
2:20 am37 °FRain. Partly cloudy.6 mph93%29.83 "Hg4 mi
1:50 am39 °FRain. Passing clouds.7 mph87%29.86 "Hg6 mi
1:20 am39 °FLight rain. Partly cloudy.5 mph93%29.86 "HgN/A
12:50 am39 °FLight rain. Partly cloudy.3 mph93%29.86 "HgN/A
12:20 am39 °FLight rain. Passing clouds.5 mph93%29.86 "HgN/A
11:50 pm
Thu, Apr 27
39 °FLight rain. Partly cloudy.6 mph93%29.89 "HgN/A
11:20 pm39 °FLight rain. Passing clouds.6 mph93%29.89 "HgN/A
10:50 pm39 °FLight rain. Partly cloudy.3 mph93%29.89 "HgN/A
10:20 pm39 °FLight rain. Passing clouds.2 mph93%29.92 "HgN/A
9:50 pm41 °FLight rain. Partly cloudy.3 mph87%29.92 "HgN/A
9:20 pm41 °FRain. Passing clouds.5 mph87%29.92 "HgN/A
8:50 pm41 °FRain. Partly cloudy.2 mph93%29.92 "Hg4 mi
8:20 pm41 °FRain. Partly cloudy.1 mph93%29.92 "Hg6 mi
7:50 pm41 °FLight rain. Broken clouds.2 mph93%29.92 "HgN/A
7:20 pm41 °FLight rain. Broken clouds.3 mph93%29.92 "HgN/A
6:50 pm43 °FLight rain. Partly sunny.2 mph87%29.92 "HgN/A
6:20 pm43 °FLight rain. Partly sunny.3 mph87%29.92 "HgN/A
5:50 pm43 °FLight rain. Partly sunny.3 mph87%29.92 "Hg5 mi
5:20 pm43 °FBroken clouds.5 mph87%29.95 "HgN/A
4:50 pm43 °FBroken clouds.5 mph93%29.95 "HgN/A
4:20 pm43 °FDrizzle. Fog.6 mph87%29.95 "Hg2 mi
3:50 pm43 °FPartly sunny.3 mph87%29.95 "HgN/A
3:20 pm43 °FPartly sunny.5 mph87%29.95 "HgN/A
2:50 pm43 °FPartly sunny.5 mph87%29.95 "HgN/A
2:20 pm43 °FBroken clouds.5 mph87%29.95 "HgN/A
1:50 pm43 °FDrizzle. Broken clouds.5 mph87%29.95 "HgN/A
1:20 pm43 °FLight rain. Broken clouds.6 mph87%29.92 "HgN/A
12:50 pm43 °FLight rain. Broken clouds.7 mph81%29.95 "HgN/A
12:20 pm41 °FBroken clouds.6 mph87%29.95 "HgN/A
Weather by CustomWeather, © 2017

See weather overviewHow to use our weather pages